| time (UTC) | temp F | wind direction | speed knots | gust knots | rain 1hr in | rain 24hr in | rain mn in | humidity % | barometer mb |
| 20260506091516 | 53 | 49 | 4.3 | 9.6 | 0.00 | 0.00 | 0.00 | 37 | 1012.3 |
| 20260506090012 | 53 | 82 | 5.2 | 12.2 | 0.00 | 0.00 | 0.00 | 37 | 1012.3 |
| 20260506084515 | 52 | 80 | 7.0 | 13.0 | 0.00 | 0.00 | 0.00 | 38 | 1012.5 |
| 20260506083007 | 54 | 107 | 4.3 | 8.7 | 0.00 | 0.00 | 0.00 | 37 | 1012.5 |
| 20260506081507 | 51 | 83 | 4.3 | 10.4 | 0.00 | 0.00 | 0.00 | 39 | 1012.6 |
| 20260506080111 | 52 | 86 | 5.2 | 9.6 | 0.00 | 0.00 | 0.00 | 37 | 1012.6 |
| 20260506073101 | 51 | 63 | 3.5 | 13.0 | 0.00 | 0.00 | 0.00 | 37 | 1012.8 |
| 20260506071544 | 50 | 105 | 4.3 | 11.3 | 0.00 | 0.00 | 0.00 | 39 | 1012.8 |
| 20260506061527 | 44 | 360 | 0.9 | 3.5 | 0.00 | 0.00 | 0.00 | 55 | 1013.0 |
| 20260506044616 | 36 | 337 | 1.7 | 4.3 | 0.00 | 0.00 | 0.00 | 56 | 1012.9 |
| 20260506043056 | 35 | 350 | 0.9 | 3.5 | 0.00 | 0.00 | 0.00 | 54 | 1012.9 |
| 20260506041605 | 34 | 318 | 0.9 | 4.3 | 0.00 | 0.00 | 0.00 | 52 | 1012.9 |
| 20260506040053 | 33 | 318 | 1.7 | 4.3 | 0.00 | 0.00 | 0.00 | 52 | 1012.8 |
| 20260506034544 | 32 | 316 | 1.7 | 4.3 | 0.00 | 0.00 | 0.00 | 50 | 1012.9 |
| 20260506033039 | 32 | 316 | 1.7 | 3.5 | 0.00 | 0.00 | 0.00 | 47 | 1013.0 |
| 20260506031534 | 31 | 316 | 1.7 | 4.3 | 0.00 | 0.00 | 0.00 | 47 | 1012.9 |
| 20260506030030 | 31 | 316 | 0.9 | 2.6 | 0.00 | 0.00 | 0.00 | 45 | 1012.8 |
| 20260506024525 | 31 | 316 | 0.9 | 3.5 | 0.00 | 0.00 | 0.00 | 32 | 1013.0 |
| 20260506023021 | 31 | 316 | 0.9 | 2.6 | 0.00 | 0.00 | 0.00 | 17 | 1012.8 |
| 20260506021516 | 31 | 316 | 1.7 | 2.6 | 0.00 | 0.00 | 0.00 | 11 | 1012.9 |
| 20260506020023 | 31 | 316 | 0.9 | 1.7 | 0.00 | 0.00 | 0.00 | 3 | 1012.9 |
| 20260506014509 | 30 | 316 | 0.0 | 0.0 | 0.00 | 0.00 | 0.00 | 1 | 1012.7 |
| 20260506013005 | 30 | 316 | 0.0 | 0.0 | 0.00 | 0.00 | 0.00 | 4 | 1012.7 |
| 20260506011602 | 31 | 316 | 0.0 | 0.0 | 0.00 | 0.00 | 0.00 | 9 | 1012.6 |
| 20260506010055 | 31 | 316 | 0.0 | 1.7 | 0.00 | 0.00 | 0.00 | 3 | 1012.4 |
| 20260506004550 | 32 | 316 | 0.0 | 0.9 | 0.00 | 0.00 | 0.00 | 15 | 1012.3 |
| 20260506003047 | 32 | 316 | 0.9 | 1.7 | 0.00 | 0.00 | 0.00 | 30 | 1012.3 |
| 20260506001548 | 33 | 316 | 0.0 | 1.7 | 0.00 | 0.00 | 0.00 | 38 | 1012.3 |
| 20260506000055 | 33 | 316 | 0.9 | 2.6 | 0.00 | 0.00 | 0.00 | 36 | 1012.2 |
| 20260505234543 | 34 | 316 | 0.9 | 2.6 | 0.00 | 0.00 | 0.00 | 37 | 1012.3 |
| 20260505233037 | 34 | 316 | 0.9 | 2.6 | 0.00 | 0.00 | 0.00 | 32 | 1012.4 |
| 20260505231535 | 34 | 316 | 0.0 | 1.7 | 0.00 | 0.00 | 0.00 | 37 | 1012.2 |
| 20260505230041 | 36 | 316 | 0.0 | 2.6 | 0.00 | 0.00 | 0.00 | 49 | 1012.2 |
| 20260505224528 | 37 | 316 | 0.9 | 1.7 | 0.00 | 0.00 | 0.00 | 50 | 1012.2 |
| 20260505223025 | 36 | 316 | 0.0 | 0.0 | 0.00 | 0.00 | 0.00 | 46 | 1012.3 |
| 20260505221523 | 37 | 316 | 0.0 | 1.7 | 0.00 | 0.00 | 0.00 | 49 | 1012.2 |
| 20260505220018 | 39 | 316 | 0.0 | 1.7 | 0.00 | 0.00 | 0.00 | 55 | 1012.0 |
| 20260505214514 | 40 | 316 | 0.9 | 1.7 | 0.00 | 0.00 | 0.00 | 57 | 1012.0 |
| 20260505213010 | 42 | 316 | 0.0 | 1.7 | 0.00 | 0.00 | 0.00 | 57 | 1012.0 |
| 20260505211506 | 43 | 316 | 0.0 | 2.6 | 0.00 | 0.00 | 0.00 | 52 | 1011.9 |
| 20260505210001 | 45 | 316 | 0.9 | 2.6 | 0.00 | 0.00 | 0.00 | 47 | 1011.8 |
| 20260505204605 | 45 | 316 | 0.9 | 4.3 | 0.00 | 0.00 | 0.00 | 45 | 1011.7 |
| 20260505203056 | 46 | 311 | 1.7 | 8.7 | 0.00 | 0.00 | 0.00 | 42 | 1011.4 |
| 20260505201549 | 47 | 294 | 3.5 | 8.7 | 0.00 | 0.00 | 0.00 | 42 | 1011.3 |
| 20260505200045 | 47 | 294 | 3.5 | 7.0 | 0.00 | 0.00 | 0.00 | 42 | 1011.2 |
| 20260505194539 | 47 | 299 | 2.6 | 7.0 | 0.00 | 0.00 | 0.00 | 41 | 1011.2 |
| 20260505193035 | 0 | 0.0 | 0.0 | 0.00 | 0.00 | 0.00 | 1011.0 | ||
| 20260505191535 | 0 | 0.0 | 0.0 | 0.00 | 0.00 | 0.00 | 1010.8 | ||
| 20260505190027 | 0 | 0.0 | 0.0 | 0.00 | 0.00 | 0.00 | 1010.7 | ||
| 20260505184529 | 0 | 0.0 | 0.0 | 0.00 | 0.00 | 0.00 | 1010.7 | ||
| 20260505183021 | 0 | 0.0 | 0.0 | 0.00 | 0.00 | 0.00 | 1010.6 | ||
| 20260505181514 | 0 | 0.0 | 0.0 | 0.00 | 0.00 | 0.00 | 1010.5 | ||
| 20260505180009 | 0 | 0.0 | 0.0 | 0.00 | 0.00 | 0.00 | 1010.4 | ||
| 20260505174505 | 0 | 0.0 | 0.0 | 0.00 | 0.00 | 0.00 | 1010.3 | ||
| 20260505173000 | 0 | 0.0 | 0.0 | 0.00 | 0.00 | 0.00 | 1010.2 | ||
| 20260505171603 | 0 | 0.0 | 0.0 | 0.00 | 0.00 | 0.00 | 1010.1 | ||
| 20260505170053 | 0 | 0.0 | 0.0 | 0.00 | 0.00 | 0.00 | 1010.1 | ||
| 20260505164549 | 0 | 0.0 | 0.0 | 0.00 | 0.00 | 0.00 | 1010.0 | ||
| 20260505163046 | 0 | 0.0 | 0.0 | 0.00 | 0.00 | 0.00 | 1009.8 | ||
| 20260505161539 | 0 | 0.0 | 0.0 | 0.00 | 0.00 | 0.00 | 1009.8 | ||
| 20260505153036 | 0 | 0.0 | 0.0 | 0.00 | 0.00 | 0.00 | 1009.6 | ||
| 20260505151523 | 0 | 0.0 | 0.0 | 0.00 | 0.00 | 0.00 | 1009.6 | ||
| 20260505124540 | 0 | 0.0 | 0.0 | 0.00 | 0.00 | 0.00 | 1009.7 | ||
| 20260505123047 | 0 | 0.0 | 0.0 | 0.00 | 0.00 | 0.00 | 1009.8 | ||
| 20260505121531 | 0 | 0.0 | 0.0 | 0.00 | 0.00 | 0.00 | 1009.9 | ||
| 20260505120026 | 0 | 0.0 | 0.0 | 0.00 | 0.00 | 0.00 | 1009.7 | ||
| 20260505114522 | 0 | 0.0 | 0.0 | 0.00 | 0.00 | 0.00 | 1010.0 | ||
| 20260505113017 | 0 | 0.0 | 0.0 | 0.00 | 0.00 | 0.00 | 1010.0 | ||
| 20260505111514 | 0 | 0.0 | 0.0 | 0.00 | 0.00 | 0.00 | 1009.9 | ||
| 20260505101602 | 0 | 0.0 | 0.0 | 0.00 | 0.00 | 0.00 | 1010.0 | ||
| 20260505100052 | 0 | 0.0 | 0.0 | 0.00 | 0.00 | 0.00 | 1010.0 | ||
| 20260505094548 | 0 | 0.0 | 0.0 | 0.00 | 0.00 | 0.00 | 1010.0 | ||
| 20260505093043 | 0 | 0.0 | 0.0 | 0.00 | 0.00 | 0.00 | 1009.9 |